Location: Wingville
(42.9917°N, 90.4915°W)
Time: 21:59:04
(UTC+00:00)

LO-87 - Pass Details

Date: 04 July 2022
Orbit: 451 x 466 km, 97.4° (Epoch: 13 August)

Event Time Altitude Azimuth Distance (km) Brightness Sun altitude
Exits shadow 06:08:33 28° 298° (WNW) 906 ? -24.1°
Drops below altitude 10° 06:10:45 10° 329° (NNW) 1,624 ? -24.1°
Sets 06:12:57 0° 339° (NNW) 2,509 ? -24.1°
